When you browse on this site, cookies collect data to enhance your experience and personalize the content and advertising you see.
Visit our Privacy Policy to learn more. By continuing to use the site, you agree to this use of cookies and data.
  • In Österreich
  • Länderverzeichnis
  • Für 7 Tage
  • Wassertemperatur
  • Wetterkarte
  • News
  • Widgets
  • user-avatar
    Anmelden

    Stündliche Wetter Bugojno

    Heute, 2 April, Donnerstag

    Zeit Temperatur Niederschläge Wind Luftdruck Luftfeuchtigkeit
    00:00 -2°C° 0 mm 1 m/S 710 mmHg 88%
    01:00 -4°C° 0 mm 2 m/S 709 mmHg 88%
    02:00 -2°C° 0 mm 1 m/S 709 mmHg 87%
    03:00 -2°C° 0 mm 1 m/S 709 mmHg 86%
    04:00 -2°C° 0 mm 1 m/S 708 mmHg 84%
    05:00 -1°C° 0 mm 1 m/S 709 mmHg 79%
    06:00 0°C° 0 mm 1 m/S 709 mmHg 74%
    07:00 +1°C° 0 mm 1 m/S 709 mmHg 69%
    08:00 +3°C° 0 mm 1 m/S 709 mmHg 61%
    09:00 +6°C° 0 mm 1 m/S 709 mmHg 53%
    10:00 +8°C° 0 mm 1 m/S 709 mmHg 45%
    11:00 +9°C° 0 mm 1 m/S 709 mmHg 44%
    12:00 +11°C° 0 mm 1 m/S 709 mmHg 43%
    13:00 +12°C° 0 mm 1 m/S 709 mmHg 42%
    14:00 +12°C° 0 mm 1 m/S 708 mmHg 44%
    15:00 +11°C° 0 mm 1 m/S 708 mmHg 46%
    16:00 +11°C° 0 mm 1 m/S 707 mmHg 48%
    17:00 +8°C° 0 mm 1 m/S 707 mmHg 59%
    18:00 +6°C° 0 mm 1 m/S 707 mmHg 70%
    19:00 +3°C° 0 mm 1 m/S 707 mmHg 81%
    20:00 +3°C° 0 mm 1 m/S 707 mmHg 83%
    21:00 +3°C° 0 mm 1 m/S 707 mmHg 84%
    22:00 +2°C° 0 mm 1 m/S 707 mmHg 86%
    23:00 +2°C° 0 mm 1 m/S 707 mmHg 86%

    Morgen, 3 April, Freitag

    Zeit Temperatur Niederschläge Wind Luftdruck Luftfeuchtigkeit
    00:00 +2°C° 0 mm 1 m/S 707 mmHg 87%
    01:00 +2°C° 0 mm 1 m/S 707 mmHg 87%
    02:00 +1°C° 0 mm 1 m/S 707 mmHg 86%
    03:00 +1°C° 0 mm 1 m/S 707 mmHg 85%
    04:00 +1°C° 0 mm 1 m/S 707 mmHg 84%
    05:00 +2°C° 0 mm 1 m/S 707 mmHg 78%
    06:00 +2°C° 0 mm 0 m/S 707 mmHg 72%
    07:00 +4°C° 0 mm 0 m/S 708 mmHg 66%
    08:00 +6°C° 0 mm 0 m/S 708 mmHg 59%
    09:00 +9°C° 0 mm 1 m/S 708 mmHg 52%
    10:00 +11°C° 0 mm 1 m/S 709 mmHg 46%
    11:00 +11°C° 0 mm 1 m/S 709 mmHg 44%
    12:00 +12°C° 0 mm 1 m/S 709 mmHg 43%
    13:00 +13°C° 0 mm 2 m/S 709 mmHg 42%
    14:00 +12°C° 0 mm 2 m/S 709 mmHg 45%
    15:00 +12°C° 0 mm 2 m/S 708 mmHg 48%
    16:00 +12°C° 0 mm 2 m/S 708 mmHg 51%
    17:00 +9°C° 0 mm 2 m/S 708 mmHg 61%
    18:00 +8°C° 0 mm 1 m/S 708 mmHg 71%
    19:00 +6°C° 0 mm 1 m/S 708 mmHg 81%
    20:00 +5°C° 0 mm 1 m/S 709 mmHg 83%
    21:00 +4°C° 0 mm 1 m/S 709 mmHg 85%
    22:00 +4°C° 0 mm 1 m/S 710 mmHg 87%
    23:00 +4°C° 0 mm 1 m/S 710 mmHg 87%

    übermorgen, 4 April, Samstag

    Zeit Temperatur Niederschläge Wind Luftdruck Luftfeuchtigkeit
    00:00 +3°C° 0 mm 1 m/S 710 mmHg 87%
    01:00 +3°C° 0 mm 1 m/S 710 mmHg 87%
    02:00 +3°C° 0 mm 1 m/S 710 mmHg 87%
    03:00 +3°C° 0 mm 1 m/S 710 mmHg 87%
    04:00 +3°C° 0 mm 1 m/S 710 mmHg 86%
    05:00 +3°C° 0 mm 2 m/S 711 mmHg 83%
    06:00 +4°C° 0 mm 2 m/S 711 mmHg 80%
    07:00 +4°C° 0 mm 3 m/S 712 mmHg 77%
    08:00 +5°C° 0 mm 4 m/S 712 mmHg 71%
    09:00 +7°C° 0 mm 5 m/S 712 mmHg 64%
    10:00 +8°C° 0 mm 5 m/S 713 mmHg 58%
    11:00 +8°C° 0 mm 6 m/S 713 mmHg 58%
    12:00 +9°C° 0 mm 6 m/S 713 mmHg 58%
    13:00 +9°C° 0 mm 6 m/S 713 mmHg 58%
    14:00 +9°C° 0 mm 6 m/S 713 mmHg 61%
    15:00 +8°C° 0 mm 6 m/S 712 mmHg 63%
    16:00 +8°C° 0 mm 6 m/S 712 mmHg 65%
    17:00 +7°C° 0 mm 5 m/S 712 mmHg 72%
    18:00 +6°C° 0 mm 4 m/S 713 mmHg 80%
    19:00 +5°C° 0 mm 4 m/S 713 mmHg 87%
    20:00 +4°C° 0 mm 3 m/S 714 mmHg 89%
    21:00 +4°C° 0 mm 3 m/S 714 mmHg 90%
    22:00 +4°C° 0 mm 3 m/S 715 mmHg 92%
    23:00 +4°C° 0 mm 3 m/S 715 mmHg 93%

    5 April, Sonntag

    Zeit Temperatur Niederschläge Wind Luftdruck Luftfeuchtigkeit
    00:00 +3°C° 0 mm 3 m/S 715 mmHg 95%
    01:00 +4°C° 0 mm 2 m/S 715 mmHg 96%
    02:00 +4°C° 0 mm 2 m/S 715 mmHg 95%
    03:00 +4°C° 0 mm 2 m/S 715 mmHg 95%
    04:00 +4°C° 0 mm 2 m/S 715 mmHg 95%
    05:00 +4°C° 0 mm 2 m/S 715 mmHg 92%
    06:00 +4°C° 0 mm 2 m/S 715 mmHg 90%
    07:00 +5°C° 0 mm 2 m/S 716 mmHg 88%
    08:00 +5°C° 0 mm 3 m/S 716 mmHg 82%
    09:00 +7°C° 0 mm 4 m/S 716 mmHg 76%
    10:00 +8°C° 0 mm 4 m/S 716 mmHg 70%
    11:00 +10°C° 0 mm 4 m/S 716 mmHg 69%
    12:00 +10°C° 0 mm 4 m/S 716 mmHg 68%
    13:00 +9°C° 0 mm 5 m/S 716 mmHg 67%
    14:00 +9°C° 0 mm 5 m/S 716 mmHg 67%
    15:00 +9°C° 0 mm 5 m/S 716 mmHg 68%
    16:00 +9°C° 0 mm 5 m/S 716 mmHg 68%
    17:00 +8°C° 0 mm 4 m/S 716 mmHg 76%
    18:00 +7°C° 0 mm 3 m/S 716 mmHg 83%
    19:00 +6°C° 0 mm 2 m/S 716 mmHg 90%
    20:00 +5°C° 0 mm 2 m/S 716 mmHg 91%
    21:00 +5°C° 0 mm 2 m/S 717 mmHg 92%
    22:00 +4°C° 0 mm 2 m/S 717 mmHg 92%
    23:00 +5°C° 0 mm 1 m/S 717 mmHg 92%

    6 April, Montag

    Zeit Temperatur Niederschläge Wind Luftdruck Luftfeuchtigkeit
    00:00 +4°C° 0 mm 1 m/S 717 mmHg 91%
    01:00 +4°C° 0 mm 1 m/S 717 mmHg 91%
    02:00 +4°C° 0 mm 1 m/S 717 mmHg 90%
    03:00 +3°C° 0 mm 1 m/S 717 mmHg 88%
    04:00 +3°C° 0 mm 1 m/S 717 mmHg 87%
    05:00 +4°C° 0 mm 1 m/S 717 mmHg 81%
    06:00 +5°C° 0 mm 1 m/S 717 mmHg 74%
    07:00 +6°C° 0 mm 1 m/S 718 mmHg 68%
    08:00 +7°C° 0 mm 2 m/S 718 mmHg 57%
    09:00 +9°C° 0 mm 2 m/S 718 mmHg 47%
    10:00 +12°C° 0 mm 2 m/S 719 mmHg 36%
    11:00 +13°C° 0 mm 2 m/S 719 mmHg 35%
    12:00 +14°C° 0 mm 2 m/S 719 mmHg 34%
    13:00 +14°C° 0 mm 3 m/S 719 mmHg 33%
    14:00 +14°C° 0 mm 3 m/S 718 mmHg 35%
    15:00 +15°C° 0 mm 2 m/S 718 mmHg 36%
    16:00 +15°C° 0 mm 2 m/S 718 mmHg 38%
    17:00 +12°C° 0 mm 2 m/S 718 mmHg 45%
    18:00 +10°C° 0 mm 1 m/S 718 mmHg 52%
    19:00 +8°C° 0 mm 1 m/S 718 mmHg 60%
    20:00 +7°C° 0 mm 1 m/S 718 mmHg 61%
    21:00 +6°C° 0 mm 1 m/S 719 mmHg 63%
    22:00 +6°C° 0 mm 1 m/S 719 mmHg 64%
    23:00 +5°C° 0 mm 1 m/S 719 mmHg 65%

    7 April, Dienstag

    Zeit Temperatur Niederschläge Wind Luftdruck Luftfeuchtigkeit
    00:00 +5°C° 0 mm 1 m/S 719 mmHg 65%
    01:00 +5°C° 0 mm 1 m/S 719 mmHg 66%
    02:00 +3°C° 0 mm 0 m/S 719 mmHg 66%
    03:00 +3°C° 0 mm 0 m/S 719 mmHg 66%
    04:00 +3°C° 0 mm 0 m/S 719 mmHg 66%
    05:00 +4°C° 0 mm 0 m/S 719 mmHg 63%
    06:00 +5°C° 0 mm 0 m/S 720 mmHg 60%
    07:00 +7°C° 0 mm 1 m/S 720 mmHg 57%
    08:00 +10°C° 0 mm 1 m/S 720 mmHg 51%
    09:00 +12°C° 0 mm 1 m/S 720 mmHg 45%
    10:00 +14°C° 0 mm 2 m/S 721 mmHg 40%
    11:00 +15°C° 0 mm 2 m/S 721 mmHg 38%
    12:00 +16°C° 0 mm 2 m/S 721 mmHg 36%
    13:00 +17°C° 0 mm 3 m/S 721 mmHg 34%
    14:00 +16°C° 0 mm 3 m/S 720 mmHg 37%
    15:00 +14°C° 0 mm 3 m/S 720 mmHg 40%
    16:00 +14°C° 0 mm 3 m/S 720 mmHg 42%
    17:00 +13°C° 0 mm 2 m/S 719 mmHg 51%
    18:00 +9°C° 0 mm 2 m/S 719 mmHg 60%
    19:00 +8°C° 0 mm 1 m/S 719 mmHg 68%
    20:00 +7°C° 0 mm 1 m/S 719 mmHg 71%
    21:00 +6°C° 0 mm 1 m/S 719 mmHg 74%
    22:00 +6°C° 0 mm 1 m/S 720 mmHg 78%
    23:00 +5°C° 0 mm 1 m/S 719 mmHg 79%
    Mehr zeigen